Weather in Whitby

United Kingdom     54°28′49″N   0°37′30″E
temp.,
°C
wind,
m/s
gust,
m/s
humid.,
%
clouds,
%
prec.,
mm/h
press.,
hPa
HPBL,
m
26 october, tue
tue2601:00+8sw5118796 0.0 1012371
04:00+8ssw51188100 0.0 1012380
07:00+8ssw51288100 0.0 1011416
10:00+10ssw81686100 0.6 1010716
13:00+12sw81785100 0.6 1009735
16:00+14sw91580100 0.0 1009643
19:00+14sw101880100 0.0 1009618
22:00+14sw91979100 0.0 1009639
27 october, wed
wed2701:00+14sw101977100 0.0 1009699
04:00+13ssw101880100 0.0 1008738
07:00+14sw101877100 0.0 1008774
10:00+15sw91679100 0.0 1009735
13:00+15ssw91680100 0.5 1010637
16:00+15ssw91677100 0.1 1008595
19:00+15ssw10187798 0.1 1008658
22:00+14ssw10178489 0.0 1007618
28 october, thu
thu2801:00+13ssw10198280 0.0 1006666
04:00+13ssw10188261 0.0 1005621
07:00+13ssw9178691 0.0 1005590
10:00+13s91788100 0.9 1005623
13:00+13s91686100 1.5 1004526
16:00+15s10177899 0.0 1001666
19:00+14s111883100 0.7 1000702
22:00+14s101786100 0.7 999652
29 october, fri
fri2901:00+13s101884100 0.9 997708
04:00+13s71488100 0.6 996674
07:00+12sw3592100 2.6 996224
10:00+12ssw4785100 0.0 998306
13:00+13ssw5880100 0.0 998369
16:00+12ssw4787100 0.3 997379
19:00+10sw51089100 0.7 997263
22:00+9sw4986100 0.0 998326
30 october, sat
sat3001:00+9ssw4109097 0.0 998329
04:00+8s5118742 0.0 997326
07:00+8s7148998 0.0 997615
10:00+9ssw7128715 0.2 999676
13:00+11sw61076100 0.2 999755
16:00+11ssw5976100 0.0 1000546
19:00+10ssw41082100 0.0 1000325
22:00+9s3887100 0.0 1000232